Вернуться в каталог

COSMOS 1275 DEB

АктивенPO
NORAD 12655·DEBRIS·🇷🇺 Russia

Запущен Jun 4, 1981 с Plesetsk Cosmodrome

Loading…

Ближайшие Пролёты (ближайшие 24 часа)

TLE

СвежийSource: Space-Track

Эпоха: Sep 14, 2026, 13:00 UTC

1 12655U 81053K   26257.54209760  .00000108  00000-0  93582-4 0  9991
2 12655  82.9628 165.5558 0033054 175.5550 301.2956 13.76840495265695

Отслеживайте COSMOS 1275 DEB в реальном времени с AllMySat

Download on the App Store